Weather History for Kalamata, Greece

Change the Weather History Date:

Sunday, October 21, 2012

  Actual Average Record
Temperature  
Mean Temperature 66 °F -  
Max Temperature 78 °F 71 °F 87 °F (2004)
Min Temperature 55 °F 52 °F 42 °F (1997)
Cooling Degree Days 2    
Growing Degree Days 16 (Base 50)    
Moisture  
Dew Point 59 °F    
Average Humidity 71    
Maximum Humidity 94    
Minimum Humidity 50    
Precipitation  
Precipitation 0.00 in 0.17 in - ()
Sea Level Pressure  
Sea Level Pressure 29.98 in    
Wind  
Wind Speed 3 mph ()    
Max Wind Speed 13 mph    
Max Gust Speed -    
Visibility 6.1 miles    
Events Rain    
Averages and records for this station are not official NWS values.
T = Trace of Precipitation, MM = Missing Value Source: Averaged Metar Reports

Daily Weather History Graph

Daily Weather History Graph

Search for Another Location

Airport:

Trip Planner

Search our weather history database for the weather conditions in past years. The results will help you decide how hot, cold, wet, or windy it might be!

Date:

Astronomy

Oct. 21, 2012 Rise Set
Actual Time 7:45 AM EEST 6:46 PM EEST
Civil Twilight 7:19 AM EEST 7:13 PM EEST
Nautical Twilight 6:48 AM EEST 7:43 PM EEST
Astronomical Twilight 6:18 AM EEST 8:13 PM EEST
Moon 1:49 PM EEST (10/21) No Moon Set
Length of Visible Light 11h 54m
Length of Day
11h 01m
Waxing Crescent, 41% of the Moon is Illuminated
Oct 21
Waxing Crescent
Oct 22
First Quarter
Oct 29
Full
Nov 7
Last Quarter
Nov 14
New

Hourly Weather History & Observations

Time (EEST) Temp. Dew Point Humidity Pressure Visibility Wind Dir Wind Speed Gust Speed Precip Events Conditions
4:20 AM 57.2 °F 55.4 °F 94% 29.98 in - Calm Calm - N/A   Clear
5:50 AM 57.2 °F 55.4 °F 94% 29.98 in - Calm Calm - N/A   Clear
6:50 AM 57.2 °F 53.6 °F 88% 29.98 in - Calm Calm - N/A   Clear
7:20 AM 55.4 °F 53.6 °F 94% 29.98 in 6.2 mi Calm Calm - N/A   Scattered Clouds
7:50 AM 57.2 °F 53.6 °F 88% 29.98 in 6.2 mi NW 4.6 mph - N/A   Scattered Clouds
8:20 AM 57.2 °F 53.6 °F 88% 30.01 in 5.0 mi Calm Calm - N/A   Partly Cloudy
8:50 AM 59.0 °F 53.6 °F 82% 30.01 in 5.0 mi NNW 5.8 mph - N/A   Scattered Clouds
9:20 AM 60.8 °F 55.4 °F 82% 30.01 in 5.0 mi NNW 5.8 mph - N/A   Partly Cloudy
9:50 AM 66.2 °F 57.2 °F 73% 30.01 in 6.2 mi NNW 4.6 mph - N/A   Partly Cloudy
10:20 AM 69.8 °F 57.2 °F 64% 30.01 in 6.2 mi NNW 6.9 mph - N/A   Partly Cloudy
10:50 AM 71.6 °F 57.2 °F 60% 30.01 in 6.2 mi Calm Calm - N/A   Partly Cloudy
11:20 AM 73.4 °F 57.2 °F 57% 30.01 in 6.2 mi Calm Calm - N/A   Partly Cloudy
11:50 AM 75.2 °F 59.0 °F 57% 30.01 in 6.2 mi Calm Calm - N/A   Partly Cloudy
12:20 PM 77.0 °F 59.0 °F 54% 30.01 in 6.2 mi Calm Calm - N/A   Partly Cloudy
12:50 PM 77.0 °F 57.2 °F 50% 29.98 in 6.2 mi Calm Calm - N/A   Partly Cloudy
1:20 PM 78.8 °F 59.0 °F 51% 29.98 in 6.2 mi Calm Calm - N/A   Partly Cloudy
1:50 PM 78.8 °F 60.8 °F 54% 29.98 in 6.2 mi Calm Calm - N/A   Scattered Clouds
2:20 PM 77.0 °F 60.8 °F 57% 29.98 in 6.2 mi South 8.1 mph - N/A   Scattered Clouds
2:50 PM 77.0 °F 62.6 °F 61% 29.98 in 6.2 mi South 8.1 mph - N/A   Scattered Clouds
3:20 PM 77.0 °F 62.6 °F 61% 29.95 in 6.2 mi South 8.1 mph - N/A   Scattered Clouds
3:50 PM 77.0 °F 62.6 °F 61% 29.95 in 6.2 mi South 8.1 mph - N/A   Scattered Clouds
4:20 PM 77.0 °F 60.8 °F 57% 29.95 in 6.2 mi South 6.9 mph - N/A   Scattered Clouds
4:50 PM 75.2 °F 62.6 °F 65% 29.95 in 6.2 mi South 6.9 mph - N/A   Scattered Clouds
5:20 PM 75.2 °F 59.0 °F 57% 29.95 in 6.2 mi Calm Calm - N/A   Mostly Cloudy
5:50 PM 75.2 °F 60.8 °F 61% 29.92 in 6.2 mi WSW 6.9 mph - N/A Rain Light Rain
6:20 PM 73.4 °F 62.6 °F 69% 29.92 in 6.2 mi West 8.1 mph - N/A   Scattered Clouds
6:50 PM 69.8 °F 62.6 °F 78% 29.95 in 6.2 mi NNE 12.7 mph - N/A   Scattered Clouds
7:20 PM 68.0 °F 62.6 °F 83% 29.95 in 6.2 mi NNE 6.9 mph - N/A   Scattered Clouds
7:50 PM 68.0 °F 60.8 °F 78% 29.95 in 6.2 mi NE 4.6 mph - N/A   Scattered Clouds
8:20 PM 66.2 °F 60.8 °F 83% 29.98 in 6.2 mi Calm Calm - N/A   Scattered Clouds
8:50 PM 68.0 °F 60.8 °F 78% 29.98 in 6.2 mi NW 4.6 mph - N/A   Scattered Clouds
11:50 PM 62.6 °F 59.0 °F 88% 30.01 in 6.2 mi Calm Calm - N/A   Partly Cloudy